Location: Unspecified
(0.0000°N, 0.0000°E)
Time: 05:06:45
(UTC+00:00)

Envisat - Pass Details

Date: 10 January 2018
Orbit: 764 x 766 km, 98.2° (Epoch: 19 January)

Event Time Altitude Azimuth Distance (km) Brightness Sun altitude
Rises 19:37:18 0° 157° (SSE) 3,231 6.2 -20.7°
Reaches altitude 10° 19:39:42 10° 151° (SSE) 2,302 5.4 -21.3°
Enters shadow 19:43:30 40° 112° (ESE) 1,113 3.5 -22.1°
